TimeCDT,TemperatureF,Dew PointF,Humidity,Sea Level PressureIn,VisibilityMPH,Wind Direction,Wind SpeedMPH,Gust SpeedMPH,PrecipitationIn,Events,Conditions,WindDirDegrees,DateUTC
12:15 AM,52.9,39.6,61,30.07,10.0,Calm,Calm,-,N/A,,Clear,0,2012-11-01 05:15:00
12:35 AM,50.2,38.5,64,30.07,10.0,West,3.5,-,N/A,,Clear,260,2012-11-01 05:35:00
12:55 AM,49.5,38.7,66,30.07,10.0,West,4.6,-,N/A,,Clear,270,2012-11-01 05:55:00
1:15 AM,50.2,39.4,66,30.07,10.0,Calm,Calm,-,N/A,,Clear,0,2012-11-01 06:15:00
1:35 AM,50.2,39.2,66,30.07,10.0,NW,3.5,-,N/A,,Clear,310,2012-11-01 06:35:00
1:55 AM,48.9,38.5,67,30.07,10.0,North,4.6,-,N/A,,Clear,350,2012-11-01 06:55:00
2:15 AM,50.2,39.4,66,30.07,10.0,Calm,Calm,-,N/A,,Clear,0,2012-11-01 07:15:00
2:35 AM,50.2,40.3,69,30.07,10.0,North,3.5,-,N/A,,Clear,360,2012-11-01 07:35:00
2:55 AM,48.6,39.4,71,30.07,10.0,Calm,Calm,-,N/A,,Clear,0,2012-11-01 07:55:00
3:15 AM,48.2,39.4,72,30.07,10.0,NNE,3.5,-,N/A,,Clear,30,2012-11-01 08:15:00
3:35 AM,46.9,39.2,74,30.07,10.0,NE,6.9,-,N/A,,Clear,40,2012-11-01 08:35:00
3:55 AM,46.9,40.5,78,30.07,10.0,Calm,Calm,-,N/A,,Clear,0,2012-11-01 08:55:00
4:15 AM,48.2,42.1,79,30.08,10.0,Calm,Calm,-,N/A,,Clear,0,2012-11-01 09:15:00
4:35 AM,46.9,40.6,79,30.07,10.0,Calm,Calm,-,N/A,,Clear,0,2012-11-01 09:35:00
5:15 AM,41.0,36.5,84,30.07,10.0,WNW,5.8,-,N/A,,Clear,300,2012-11-01 10:15:00
5:35 AM,41.5,37.0,84,30.07,10.0,NW,4.6,-,N/A,,Clear,320,2012-11-01 10:35:00
5:55 AM,41.5,36.9,83,30.07,10.0,NW,4.6,-,N/A,,Clear,320,2012-11-01 10:55:00
6:15 AM,42.3,37.2,82,30.07,10.0,North,4.6,-,N/A,,Clear,360,2012-11-01 11:15:00
6:35 AM,43.7,38.3,81,30.07,10.0,North,4.6,-,N/A,,Clear,360,2012-11-01 11:35:00
7:15 AM,40.5,35.8,83,30.08,10.0,WNW,5.8,-,N/A,,Clear,300,2012-11-01 12:15:00
7:35 AM,40.5,35.8,83,30.09,10.0,NW,6.9,-,N/A,,Clear,310,2012-11-01 12:35:00
7:55 AM,41.0,36.3,83,30.09,10.0,NW,5.8,-,N/A,,Clear,310,2012-11-01 12:55:00
8:35 AM,39.4,35.2,85,30.10,10.0,WNW,4.6,-,N/A,,Clear,290,2012-11-01 13:35:00
8:55 AM,41.2,36.9,85,30.11,10.0,WNW,3.5,-,N/A,,Clear,290,2012-11-01 13:55:00
10:15 AM,52.2,41.9,68,30.12,10.0,Calm,Calm,-,N/A,,Clear,0,2012-11-01 15:15:00
10:35 AM,54.7,43.5,66,30.12,10.0,WNW,3.5,-,N/A,,Clear,290,2012-11-01 15:35:00
11:15 AM,58.6,44.2,59,30.12,10.0,NW,4.6,-,N/A,,Clear,310,2012-11-01 16:15:00
11:35 AM,61.5,45.1,55,30.12,10.0,WNW,3.5,-,N/A,,Clear,300,2012-11-01 16:35:00
12:35 PM,66.7,45.0,45,30.10,10.0,Calm,Calm,-,N/A,,Clear,0,2012-11-01 17:35:00
1:35 PM,71.6,44.1,37,30.07,10.0,Calm,Calm,-,N/A,,Clear,0,2012-11-01 18:35:00
1:55 PM,73.6,43.9,34,30.05,10.0,Calm,Calm,-,N/A,,Clear,0,2012-11-01 18:55:00
2:15 PM,73.9,43.9,34,30.04,10.0,Calm,Calm,-,N/A,,Clear,0,2012-11-01 19:15:00
2:35 PM,75.2,44.2,33,30.03,10.0,Calm,Calm,-,N/A,,Clear,0,2012-11-01 19:35:00
2:55 PM,77.5,42.4,29,30.02,10.0,ESE,3.5,-,N/A,,Clear,110,2012-11-01 19:55:00
3:35 PM,79.2,40.8,25,29.99,10.0,ESE,3.5,-,N/A,,Clear,110,2012-11-01 20:35:00
4:55 PM,81.1,38.7,22,29.97,10.0,East,8.1,-,N/A,,Clear,90,2012-11-01 21:55:00
5:15 PM,81.1,37.8,21,29.97,10.0,East,8.1,-,N/A,,Clear,100,2012-11-01 22:15:00
5:35 PM,80.8,37.6,21,29.96,10.0,East,10.4,-,N/A,,Clear,100,2012-11-01 22:35:00
5:55 PM,80.6,37.9,22,29.96,10.0,East,6.9,-,N/A,,Clear,90,2012-11-01 22:55:00
6:15 PM,79.3,38.3,23,29.96,10.0,East,9.2,-,N/A,,Clear,90,2012-11-01 23:15:00
6:35 PM,77.0,39.4,26,29.96,10.0,East,6.9,-,N/A,,Clear,80,2012-11-01 23:35:00
6:55 PM,73.6,39.6,29,29.96,10.0,East,6.9,-,N/A,,Clear,80,2012-11-01 23:55:00
7:15 PM,69.8,38.8,32,29.97,10.0,East,6.9,-,N/A,,Clear,80,2012-11-02 00:15:00
7:35 PM,68.5,38.7,34,29.97,10.0,ENE,5.8,-,N/A,,Clear,70,2012-11-02 00:35:00
7:55 PM,66.2,39.0,37,29.98,10.0,ENE,6.9,-,N/A,,Clear,70,2012-11-02 00:55:00
8:15 PM,65.3,39.6,39,29.98,10.0,East,5.8,-,N/A,,Clear,80,2012-11-02 01:15:00
8:35 PM,64.8,40.1,40,29.98,10.0,East,6.9,-,N/A,,Clear,90,2012-11-02 01:35:00
8:55 PM,61.0,40.8,47,29.98,10.0,ESE,6.9,-,N/A,,Clear,110,2012-11-02 01:55:00
9:15 PM,59.0,41.2,52,29.99,10.0,ESE,8.1,-,N/A,,Clear,110,2012-11-02 02:15:00
10:55 PM,58.8,45.1,60,30.00,10.0,ESE,8.1,-,N/A,,Clear,120,2012-11-02 03:55:00
11:15 PM,58.5,45.3,62,30.00,10.0,SE,9.2,-,N/A,,Clear,130,2012-11-02 04:15:00
11:35 PM,59.2,45.1,60,30.00,10.0,SE,9.2,-,N/A,,Clear,130,2012-11-02 04:35:00
11:55 PM,58.1,44.6,61,30.00,10.0,East,4.6,-,N/A,,Clear,100,2012-11-02 04:55:00